2000 AB229                                                                  

Epoch 2000 Feb. 26.0 TT = JDT 2451600.5                 Nakano

M   0.19649              (2000.0)            P               Q

n   0.00259761     Peri.  171.75176     -0.64960845     -0.35804329

a  52.4107807      Node   313.96784     +0.63348761     +0.23284414

e   0.9563148      Incl.   68.72540     +0.42035973     -0.90420607

P 379.43           H   14.0           G   0.15           U   3

Residuals in seconds of arc 

K0015  704  0.3-  0.5+    K0018  704  0.2-  0.5+    K001D  719  0.8-  0.5-  

K0015  704  0.1+  0.2+    K0018  711  0.6-  0.1-    K001D  719  0.9-  1.0-  

K0015  704  0.3+  0.3+    K0018  711  0.7-  0.3-    K001F  046  0.1+  0.2+  

K0015  704  0.2+  0.4-    K0018  711  0.8-  0.2-    K001F  046  0.1+  0.4+  

K0015  704  0.2+  0.1+    K0018  670  0.0   0.7-    K001F  046  0.3+  0.5+  

K0016  046  0.0   0.1-    K0018  670  0.6-  0.7-    K001F  046  0.2+  0.3+  

K0016  046  0.3+  0.3+    K0018  422  0.3+  0.4+    K001F  046  0.2+  0.5+  

K0016  046  0.5+  0.7+    K0018  422  0.1-  0.3+    K001F  422  0.4+  0.3+  

K0016  046  0.2-  0.4+    K0018  422  0.2+  0.2+    K001F  422  0.1+  0.1-  

K0016  557  0.1+  0.4+    K0019  046  0.3+  0.8+    K001F  422  0.1-  0.1-  

K0016  557  0.4+  0.5+    K0019  046  0.1+  0.7+    K001F  587  0.1-  0.2-  

K0016  557  0.2+  0.3+    K0019  046  0.5+  0.5+    K001F  587  0.3+  0.2-  

K0016  557  0.4+  0.7+    K0019  046  0.2+  0.6+    K001H  467  0.4+  1.3-  

K0016  557  0.7+  0.3+    K0019  704  0.4-  0.7-    K001H  467  0.3-  0.6+  

K0016  704  0.0   0.2+    K0019  704  0.2+  0.1+    K001H  467  1.0+  0.8+  

K0016  704  0.0   0.1+    K0019  704  0.8-  0.0     K001H  467  0.5-  0.2-  

K0016  704  0.1-  0.5-    K0019  711  0.0   0.4-    K001I  348  0.1-  1.9-  

K0016  704  0.2-  0.1+    K0019  711  0.0   0.4-    K001I  348  0.3+  0.1-  

K0017  046  0.1+  0.6+    K0019  711  0.4-  0.1-    K001I  348  1.6-  0.3-  

K0017  046  0.6+  0.5+    K001A  704  0.6-  0.2-    K001I  900  1.1-  0.5+  

K0017  046  0.3+  0.4+    K001A  704  0.1-  0.0     K001I  900 (3.8-  0.6+) 

K0017  046  0.4+  0.5+    K001A  704  0.5-  0.1+    K001I  402  0.5+  0.3+  

K0017  106  0.2+  0.7+    K001A  704  0.2-  0.2+    K001I  402  0.1-  0.1+  

K0017  106  0.0   0.2+    K001A  704  0.4-  0.1+    K001I  402  0.6+  0.3-  

K0017  106  0.1-  0.5+    K001B  704  0.6-  0.1-    K001I  402  0.2+  0.5-  

K0017  704  0.5-  0.5-    K001B  704  0.2+  0.1-    K001P  611  0.4+  0.7+  

K0017  704  0.6-  0.9-    K001B  704  0.5+  0.0     K001P  611  0.4-  1.0+  

K0017  704  0.0   0.6-    K001B  711  0.3-  0.4-    K001P  611  0.6+  0.7+  

K0017  704  0.0   0.6-    K001B  704  0.4+  0.2-    K001Q  118  0.1+  0.0   

K0017  704  0.3-  0.6-    K001B  711  0.0   0.8-    K001Q  118  0.2+  0.6-  

K0017  651  0.3+  0.6-    K001B  711  0.3-  0.8-    K001Q  118  0.1-  0.3-  

K0017  651  0.1-  0.9-    K001B  704  0.0   0.7+    K001Q  402  0.2-  0.6-  

K0017  704  0.0   0.4-    K001B  422  0.6+  0.5+    K001Q  402  0.2+  0.4-  

K0017  651  0.1+  0.6-    K001B  422  0.4+  0.4+    K001Q  402  0.2+  0.3-  

K0017  704  0.1+  0.9-    K001C  118  0.1+  0.6+    K001Q  108 (0.4-  3.8-) 

K0017  704  0.0   0.7-    K001C  118  0.1+  0.4+    K001Q  108  0.2+  1.7-  

K0017  704  0.4-  0.0     K001C  118  0.8+  0.7+    K001R  108  0.1+  0.6+  

K0017  704  0.5-  0.5-    K001C  118  0.4-  0.3+    K001T  402  0.2+  0.4-  

K0017  711  0.8-  1.9-    K001C  046  0.3-  0.4+    K001T  402  0.1-  0.5-  

K0017  711  0.6-  1.4-    K001C  046  0.5+  1.1+    K001T  402  0.4+  0.2-  

K0017  711  0.5+  0.7-    K001C  046  0.9+  0.3+    K0022  704  0.0   0.4+  

K0018  046  0.0   0.5+    K001C  046  0.3-  0.8+    K0022  704  0.2-  0.6+  

K0018  046  0.3+  0.4+    K001C  557  0.1+  0.1+    K0022  704  0.4-  0.2+  

K0018  046  0.2+  0.2+    K001C  557  0.2+  0.3+    K0022  704  0.5-  0.3+  

K0018  046  0.1+  0.4+    K001C  557  0.2+  0.3+    K0022  704  0.3-  0.1+  

K0018  046  0.5+  0.3+    K001D  046  0.1+  0.3+    K0024  422  0.2+  0.2+  

K0018  678  0.4+  0.1+    K001D  046  0.0   0.6+    K0024  422  0.0   0.1-  

K0018  678  0.5+  0.5-    K001D  046  0.2+  0.4+    K0024  422  0.1+  0.0   

K0018  678  0.3+  0.3-    K001D  046  0.1+  0.6+    K0024  360  0.1+  0.2-  

K0018  704  0.1-  0.3-    K001D  595  0.4+  0.1-    K0024  360  0.1+  0.0   

K0018  704  0.3-  0.1+    K001D  595  0.4-  0.0     K0024  360  0.0   0.0   

K0018  704  0.1-  0.5-    K001D  595  0.1-  0.0                             

K0018  704  0.7-  0.5-    K001D  595  0.5-  0.2-                            

 

NAKANO

         **** Don't distribute anyone except personal use only ****

                (C) Copyright 2000 OAA/ComputingSection

write mail from CFAD0::NAKANO on 2000-02-06 23:55:12(JST).





–ß‚è‚Ü‚·B